This demonstration page uses our WeatherBlox Daily Observations layout. Learn more.

39.92423, -83.80882

Hourly Observations for August 31, 2018

Temp ( °F °C ) Dew Point ( °F °C ) Humidity (%) Winds ( mph kmh ) Pressure ( in mb ) Visibility ( mi km ) Precip ( " mm )
12:56 am 00:56 Clear 65 18.3 65 18.3 100 100 NE 6 9 30.15 1021 10 16.0934 0 0
1:56 am 01:56 Clear 64 17.8 64 17.8 100 100 NE 5 7 30.14 1021 10 16.0934 0 0
2:56 am 02:56 Clear 63 17.2 63 17.2 100 100 NE 5 7 30.13 1020 10 16.0934 0 0
3:56 am 03:56 Clear with Mist and Fog 63 17.2 63 17.2 100 100 E 5 7 30.13 1020 4 6.43736 0 0
4:56 am 04:56 Clear 61 16.1 61 16.1 100 100 E 5 7 30.14 1021 7 11.26538 0 0
5:56 am 05:56 Clear 61 16.1 61 16.1 100 100 NE 6 9 30.15 1021 7 11.26538 0 0
6:56 am 06:56 Clear with Mist and Fog 61 16.1 61 16.1 100 100 E 5 7 30.15 1021 6 9.65604 0 0
7:56 am 07:56 Sunny 63 17.2 63 17.2 100 100 E 5 7 30.16 1021 7 11.26538 0 0
8:56 am 08:56 Sunny 67 19.4 66 18.9 97 97 E 5 7 30.16 1021 9 14.48406 0 0
9:56 am 09:56 Sunny 72 22.2 69 20.6 91 91 SE 5 7 30.14 1021 10 16.0934 0 0
10:56 am 10:56 Sunny 76 24.4 70 21.1 82 82 ESE 3 6 30.16 1021 10 16.0934 0 0
11:56 am 11:56 Mostly Sunny 80 26.7 71 21.7 74 74 Calm 30.16 1021 10 16.0934 0 0
12:56 pm 12:56 Mostly Sunny 82 27.8 70 21.1 67 67 S 6 9 30.16 1021 10 16.0934 0 0
2:56 pm 14:56 Partly Cloudy 84 28.9 68 20 59 59 VRB 5 7 30.14 1021 10 16.0934 0 0
3:56 pm 15:56 Sunny 84 28.9 66 18.9 55 55 Calm 30.11 1020 9 14.48406 0 0
4:56 pm 16:56 Sunny 85 29.4 69 20.6 59 59 VRB 7 11 30.1 1019 10 16.0934 0 0
5:56 pm 17:56 Sunny 83 28.3 70 21.1 65 65 SSE 3 6 30.09 1019 10 16.0934 0 0
6:56 pm 18:56 Sunny 82 27.8 71 21.7 69 69 Calm 30.09 1019 10 16.0934 0 0
7:56 pm 19:56 Sunny 76 24.4 72 22.2 88 88 ESE 5 7 30.1 1019 10 16.0934 0 0
8:56 pm 20:56 Clear 75 23.9 70 21.1 84 84 SSE 6 9 30.11 1020 10 16.0934 0 0
9:56 pm 21:56 Clear 74 23.3 71 21.7 91 91 SSE 8 13 30.12 1020 10 16.0934 0 0
10:56 pm 22:56 Mostly Cloudy 74 23.3 72 22.2 94 94 S 3 6 30.14 1021 10 16.0934 0 0
11:56 pm 23:56 Mostly Clear 74 23.3 72 22.2 94 94 S 5 7 30.14 1021 10 16.0934 0 0

Powered by AerisWeather